EW9204 Weather Reports


Display with metric or nautical units.
time (UTC)temp
F
wind
direction
speed
MPH
gust
MPH
rain 1hr
in
rain 24hr
in
rain mn
in
humidity
%
barometer
mb
20260903222019 81 119 1.0 2.0 0.00 0.19 0.19 78 1013.6
20260903221546 82 93 0.0 2.0 0.00 0.19 0.19 77 1013.6
20260903221016 82 0 0.0 2.0 0.00 0.19 0.19 76 1013.7
20260903220521 82 0 0.0 2.0 0.00 0.19 0.19 77 1013.7
20260903220040 82 146 0.0 2.0 0.00 0.19 0.19 74 1013.8
20260903215519 82 334 0.0 3.0 0.00 0.19 0.19 73 1013.7
20260903215021 82 30 1.0 3.0 0.00 0.19 0.19 72 1013.6
20260903214550 83 330 1.0 3.0 0.00 0.19 0.19 73 1013.6
20260903214019 83 0 0.0 3.0 0.00 0.19 0.19 72 1013.6
20260903213524 83 137 0.0 3.0 0.00 0.19 0.19 71 1013.6
20260903213047 82 342 1.0 4.0 0.00 0.19 0.19 72 1013.5
20260903212519 82 165 0.0 4.0 0.00 0.19 0.19 72 1013.6
20260903212019 82 200 1.0 6.0 0.00 0.19 0.19 72 1013.5
20260903211546 82 201 2.0 6.0 0.00 0.19 0.19 72 1013.5
20260903211021 83 164 1.0 7.0 0.00 0.19 0.19 73 1013.6
20260903210524 83 168 2.0 7.0 0.00 0.19 0.19 74 1013.7
20260903210049 83 214 2.0 6.0 0.00 0.19 0.19 71 1013.7
20260903205522 83 282 1.0 4.0 0.00 0.19 0.19 72 1013.8
20260903205019 83 321 1.0 6.0 0.00 0.19 0.19 72 1013.8
20260903204545 83 0 0.0 7.0 0.00 0.19 0.19 73 1013.7
20260903204020 83 0 2.0 7.0 0.00 0.19 0.19 72 1013.6
20260903203523 83 0 1.0 4.0 0.00 0.19 0.19 73 1013.8
20260903203044 83 22 1.0 6.0 0.00 0.19 0.19 73 1013.7
20260903202518 83 338 1.0 6.0 0.00 0.19 0.19 73 1013.7
20260903202021 83 0 1.0 6.0 0.00 0.19 0.19 75 1013.7
20260903201542 82 309 0.0 4.0 0.00 0.19 0.19 74 1013.8
20260903201020 82 34 0.0 4.0 0.00 0.19 0.19 74 1013.9
20260903200525 83 344 1.0 4.0 0.00 0.19 0.19 74 1013.9
20260903200044 83 342 1.0 3.0 0.00 0.19 0.19 74 1013.8
20260903195524 83 129 0.0 2.0 0.00 0.24 0.19 76 1013.8
20260903195025 82 0 0.0 4.0 0.00 0.24 0.19 75 1013.9
20260903194549 82 0 1.0 4.0 0.00 0.24 0.19 73 1013.8
20260903194018 82 9 1.0 4.0 0.00 0.24 0.19 73 1014.0
20260903193521 82 303 0.0 3.0 0.00 0.24 0.19 74 1014.1
20260903193048 82 309 0.0 3.0 0.00 0.24 0.19 76 1014.0
20260903192518 82 0 0.0 3.0 0.00 0.24 0.19 75 1014.2
20260903192019 82 212 1.0 4.0 0.00 0.24 0.19 74 1014.1
20260903191544 82 137 1.0 5.0 0.00 0.24 0.19 75 1014.1
20260903191024 82 208 1.0 6.0 0.00 0.24 0.19 75 1014.2
20260903190518 82 0 2.0 6.0 0.00 0.24 0.19 74 1014.3
20260903190054 82 0 1.0 5.0 0.00 0.24 0.19 76 1014.3
20260903185519 82 309 2.0 5.0 0.00 0.43 0.19 74 1014.3
20260903185017 82 9 2.0 7.0 0.00 0.43 0.19 74 1014.4
20260903184539 82 0 1.0 7.0 0.00 0.43 0.19 74 1014.5
20260903184020 82 129 2.0 7.0 0.00 0.43 0.19 73 1014.5
20260903183522 82 51 1.0 7.0 0.00 0.43 0.19 76 1014.5
20260903183040 82 339 2.0 7.0 0.00 0.43 0.19 74 1014.6
20260903182519 82 314 1.0 7.0 0.00 0.43 0.19 73 1014.6
20260903182019 82 291 1.0 5.0 0.00 0.43 0.19 73 1014.6
20260903181546 82 119 1.0 5.0 0.00 0.43 0.19 74 1014.6
20260903181019 82 298 2.0 5.0 0.00 0.43 0.19 74 1014.6
20260903180517 82 140 1.0 5.0 0.00 0.43 0.19 74 1014.7
20260903180044 81 0 1.0 5.0 0.00 0.43 0.19 77 1014.7
20260903175517 81 301 1.0 8.0 0.00 0.43 0.19 75 1014.7
20260903175016 81 280 2.0 9.0 0.00 0.43 0.19 77 1014.8
20260903174540 81 291 4.0 9.0 0.00 0.43 0.19 75 1014.9
20260903174018 81 28 1.0 9.0 0.00 0.43 0.19 77 1015.0
20260903173519 81 306 1.0 9.0 0.00 0.43 0.19 76 1015.0
20260903173041 81 80 3.0 9.0 0.00 0.43 0.19 77 1015.1
20260903172520 80 332 2.0 7.0 0.00 0.43 0.19 79 1015.2
20260903172020 79 254 1.0 7.0 0.00 0.43 0.19 79 1015.2
20260903171541 79 162 1.0 7.0 0.00 0.43 0.19 82 1015.2
20260903171016 79 279 2.0 5.0 0.00 0.43 0.19 82 1015.3
20260903170518 78 229 1.0 6.0 0.00 0.43 0.19 81 1015.4
20260903170053 78 279 2.0 6.0 0.00 0.43 0.19 80 1015.4
20260903165517 78 217 2.0 7.0 0.00 0.43 0.19 82 1015.3
20260903165016 78 165 2.0 7.0 0.00 0.43 0.19 80 1015.4
20260903164540 78 175 2.0 7.0 0.00 0.43 0.19 83 1015.4
20260903164021 77 165 4.0 7.0 0.00 0.43 0.19 82 1015.3
20260903163522 77 0 3.0 7.0 0.00 0.43 0.19 82 1015.4
20260903163052 77 151 1.0 6.0 0.00 0.43 0.19 84 1015.6
20260903162519 77 236 2.0 7.0 0.00 0.43 0.19 84 1015.7
20260903162020 77 178 1.0 12.0 0.00 0.43 0.19 83 1015.7
20260903161539 77 200 3.0 12.0 0.00 0.43 0.19 82 1015.7
20260903161018 77 208 2.0 12.0 0.00 0.43 0.19 82 1015.7
20260903160516 77 232 4.0 12.0 0.00 0.43 0.19 82 1015.8
20260903160040 77 214 2.0 7.0 0.00 0.43 0.19 84 1016.1
20260903155521 76 156 2.0 8.0 0.00 0.43 0.19 84 1016.1
20260903155020 76 325 2.0 10.0 0.00 0.43 0.19 83 1016.2
20260903154540 76 76 1.0 11.0 0.00 0.43 0.19 84 1016.2
20260903154022 76 279 3.0 11.0 0.00 0.43 0.19 84 1016.3
20260903153518 76 265 1.0 8.0 0.00 0.43 0.19 86 1016.0
20260903153039 76 200 2.0 8.0 0.00 0.43 0.19 84 1015.9
20260903152519 76 279 2.0 6.0 0.00 0.43 0.19 86 1016.0
20260903152015 75 19 1.0 7.0 0.00 0.43 0.19 88 1016.1
20260903151539 75 215 2.0 9.0 0.00 0.43 0.19 89 1016.1
20260903151019 74 221 2.0 10.0 0.00 0.43 0.19 89 1016.1
20260903150517 74 205 4.0 10.0 0.00 0.43 0.19 88 1016.2
20260903150052 74 207 2.0 7.0 0.00 0.43 0.19 89 1016.0
20260903145518 74 208 3.0 9.0 0.00 0.43 0.19 88 1016.0
20260903145021 73 151 2.0 9.0 0.00 0.43 0.19 89 1015.9
20260903144537 73 309 1.0 7.0 0.00 0.43 0.19 90 1016.2
20260903144017 73 141 2.0 10.0 0.00 0.43 0.19 90 1016.2
20260903143516 73 170 2.0 10.0 0.00 0.43 0.19 89 1016.2
20260903143040 73 164 2.0 5.0 0.00 0.43 0.19 90 1016.3
20260903142521 73 137 1.0 5.0 0.00 0.43 0.19 90 1016.1
20260903142020 73 119 2.0 7.0 0.00 0.43 0.19 91 1016.2
20260903141539 72 236 2.0 7.0 0.00 0.43 0.19 91 1016.2
20260903141023 72 186 2.0 9.0 0.00 0.43 0.19 91 1016.0
20260903140520 72 219 3.0 9.0 0.00 0.43 0.19 92 1016.2
20260903140043 71 229 2.0 8.0 0.00 0.43 0.19 93 1016.0
20260903135517 71 196 2.0 7.0 0.00 0.43 0.19 94 1015.9
20260903135019 71 153 2.0 7.0 0.00 0.43 0.19 94 1016.1
20260903134538 70 196 2.0 8.0 0.00 0.43 0.19 94 1016.0
20260903134019 70 157 2.0 8.0 0.00 0.43 0.19 95 1016.0
20260903133519 70 245 2.0 7.0 0.00 0.43 0.19 95 1015.9
20260903133038 70 210 2.0 5.0 0.00 0.43 0.19 96 1015.9
20260903132518 70 247 1.0 5.0 0.00 0.43 0.19 96 1016.0
20260903132019 70 254 1.0 5.0 0.00 0.43 0.19 96 1016.0
20260903131535 70 188 2.0 5.0 0.00 0.43 0.19 97 1015.8
20260903131018 69 234 1.0 4.0 0.00 0.43 0.19 96 1015.6
20260903130515 69 137 1.0 7.0 0.00 0.43 0.19 96 1015.6
20260903130041 69 205 2.0 7.0 0.00 0.43 0.19 96 1016.0
20260903125516 69 173 1.0 5.0 0.00 0.43 0.19 97 1016.1
20260903125026 69 226 2.0 6.0 0.00 0.43 0.19 97 1016.1
20260903124537 68 193 2.0 7.0 0.00 0.43 0.19 96 1016.1
20260903124020 68 212 2.0 7.0 0.00 0.43 0.19 96 1016.0
20260903123518 68 196 1.0 6.0 0.00 0.43 0.19 96 1016.2
20260903123037 68 282 1.0 5.0 0.00 0.43 0.19 97 1016.4
20260903122516 68 162 1.0 5.0 0.00 0.43 0.19 97 1016.1
20260903122016 68 158 1.0 4.0 0.00 0.43 0.19 97 1016.3
20260903121544 68 193 1.0 4.0 0.00 0.43 0.19 97 1016.3
20260903121017 68 157 0.0 4.0 0.00 0.43 0.19 97 1016.1
20260903120519 68 193 1.0 4.0 0.00 0.43 0.19 97 1016.4
20260903120041 68 0 0.0 2.0 0.00 0.43 0.19 97 1016.7
20260903115521 68 0 0.0 3.0 0.00 0.43 0.19 97 1016.5
20260903115019 68 265 0.0 3.0 0.00 0.43 0.19 97 1016.3
20260903114549 68 137 0.0 4.0 0.00 0.43 0.19 97 1016.3
20260903114017 68 0 2.0 4.0 0.00 0.43 0.19 97 1016.3
20260903113521 68 178 0.0 4.0 0.00 0.43 0.19 97 1016.3
20260903113036 68 167 1.0 4.0 0.00 0.43 0.19 97 1016.3
20260903112516 67 212 1.0 2.0 0.00 0.43 0.19 97 1016.4
20260903112016 67 291 0.0 4.0 0.00 0.43 0.19 97 1016.3
20260903111540 67 137 1.0 4.0 0.00 0.43 0.19 97 1016.3
20260903111020 67 0 0.0 3.0 0.00 0.43 0.19 97 1016.1
20260903110518 67 265 0.0 3.0 0.00 0.43 0.19 97 1016.4
20260903110044 67 126 0.0 2.0 0.00 0.43 0.19 97 1016.3
20260903105519 67 44 0.0 4.0 0.00 0.43 0.19 97 1016.3
20260903105019 67 325 1.0 4.0 0.00 0.43 0.19 97 1016.0
20260903104536 67 221 1.0 4.0 0.00 0.43 0.19 96 1015.9
20260903104017 67 178 1.0 4.0 0.00 0.43 0.19 96 1016.2
20260903103517 68 205 1.0 5.0 0.00 0.43 0.19 96 1016.4
20260903103040 68 0 1.0 5.0 0.00 0.43 0.19 96 1016.4
20260903102516 68 200 0.0 3.0 0.00 0.43 0.19 96 1016.3
20260903102018 68 247 1.0 3.0 0.00 0.43 0.19 96 1016.2
20260903101545 68 229 0.0 2.0 0.00 0.43 0.19 96 1016.0
20260903101020 68 171 0.0 2.0 0.00 0.43 0.19 96 1016.0
20260903100519 68 0 0.0 3.0 0.00 0.43 0.19 96 1016.1
20260903100044 68 229 1.0 4.0 0.00 0.43 0.19 96 1015.9
20260903095519 68 215 1.0 4.0 0.00 0.44 0.19 96 1015.9
20260903095018 68 218 1.0 5.0 0.00 0.44 0.19 96 1015.6
20260903094536 68 0 1.0 5.0 0.00 0.44 0.19 96 1015.7
20260903094021 68 162 2.0 10.0 0.00 0.44 0.19 96 1015.5
20260903093527 68 212 2.0 10.0 0.00 0.44 0.19 97 1015.9
20260903093113 68 243 1.0 6.0 0.00 0.44 0.19 96 1015.8
20260903092522 68 190 2.0 6.0 0.00 0.44 0.19 97 1015.6
20260903092021 67 178 1.0 5.0 0.00 0.44 0.19 97 1015.9
20260903091550 67 291 1.0 5.0 0.00 0.44 0.19 97 1015.8
20260903091020 67 205 1.0 6.0 0.00 0.44 0.19 96 1015.9
20260903090519 67 212 1.0 6.0 0.00 0.44 0.19 96 1015.9
20260903090043 67 187 1.0 3.0 0.00 0.44 0.19 96 1015.8
20260903085517 67 215 1.0 4.0 0.00 0.44 0.19 96 1015.7
20260903085018 67 158 0.0 5.0 0.01 0.44 0.19 96 1015.5
20260903084539 67 178 1.0 5.0 0.01 0.44 0.19 96 1015.7
20260903084019 67 238 2.0 5.0 0.01 0.44 0.19 96 1015.7
20260903083521 67 205 2.0 5.0 0.01 0.44 0.19 96 1015.9
20260903083046 67 160 2.0 5.0 0.01 0.44 0.19 96 1016.1
20260903082527 67 178 2.0 5.0 0.01 0.44 0.19 96 1016.3
20260903082020 67 195 1.0 4.0 0.01 0.44 0.19 96 1016.5
20260903081544 67 0 0.0 2.0 0.01 0.44 0.19 96 1016.6
20260903081023 67 153 0.0 2.0 0.01 0.44 0.19 96 1016.7
20260903080527 67 0 0.0 3.0 0.02 0.44 0.19 96 1016.8
20260903080042 67 178 1.0 3.0 0.02 0.44 0.19 96 1016.7
20260903075517 67 178 1.0 4.0 0.02 0.44 0.19 96 1016.6
20260903075021 67 119 1.0 5.0 0.01 0.43 0.18 96 1016.4
20260903074544 67 146 1.0 5.0 0.01 0.43 0.18 96 1016.5
20260903074020 66 221 1.0 4.0 0.01 0.43 0.18 96 1016.6
20260903073520 66 257 1.0 5.0 0.01 0.43 0.18 96 1016.7
20260903073040 66 178 0.0 5.0 0.01 0.43 0.18 96 1016.7
20260903072521 66 196 1.0 5.0 0.01 0.43 0.18 96 1016.6
20260903072019 66 205 2.0 4.0 0.01 0.43 0.18 96 1016.7
20260903071554 67 178 1.0 4.0 0.02 0.43 0.18 96 1016.8
20260903071020 67 196 1.0 4.0 0.02 0.43 0.18 96 1016.9
20260903070526 67 193 1.0 4.0 0.01 0.42 0.17 96 1017.1
20260903070057 67 171 0.0 3.0 0.01 0.42 0.17 96 1017.1
20260903065520 67 205 0.0 3.0 0.01 0.42 0.17 96 1017.2
20260903065018 67 170 1.0 4.0 0.01 0.42 0.17 96 1017.2
20260903064538 67 265 1.0 4.0 0.01 0.42 0.17 96 1017.2
20260903064019 66 193 1.0 4.0 0.02 0.42 0.17 96 1017.1
20260903063524 66 157 1.0 2.0 0.02 0.42 0.17 96 1017.1
20260903063041 66 0 1.0 2.0 0.02 0.42 0.17 96 1017.1
20260903062522 66 178 1.0 2.0 0.03 0.42 0.17 96 1017.2
20260903062023 66 0 0.0 2.0 0.04 0.42 0.17 96 1017.3
20260903061539 66 0 0.0 2.0 0.05 0.41 0.16 96 1017.4
20260903061023 66 64 0.0 2.0 0.06 0.41 0.16 96 1017.5
20260903060521 66 80 0.0 2.0 0.09 0.41 0.16 96 1017.7
20260903060042 66 61 0.0 2.0 0.12 0.41 0.16 96 1017.9
20260903055518 66 0 0.0 2.0 0.14 0.42 0.16 96 1017.8
20260903055019 66 325 1.0 3.0 0.16 0.42 0.16 96 1017.6
20260903054545 66 0 1.0 3.0 0.15 0.41 0.15 96 1017.5
20260903054021 66 279 1.0 3.0 0.15 0.41 0.15 96 1017.5
20260903053520 66 108 1.0 3.0 0.15 0.41 0.15 96 1017.6
20260903053043 66 298 0.0 3.0 0.14 0.40 0.14 96 1017.9
20260903052520 66 59 1.0 3.0 0.14 0.40 0.14 96 1017.9
20260903052021 66 165 1.0 3.0 0.12 0.38 0.12 96 1018.4
20260903051545 66 51 0.0 5.0 0.11 0.37 0.11 96 1018.8
20260903051021 66 247 1.0 5.0 0.10 0.36 0.10 96 1019.2
20260903050521 67 168 0.0 3.0 0.06 0.32 0.06 96 1019.6
20260903050101 67 0 1.0 3.0 0.03 0.29 0.03 96 1019.8
20260903045521 67 0 1.0 2.0 0.01 0.27 0.01 96 1019.8
20260903045022 66 273 0.0 3.0 0.00 0.26 0.00 96 1019.4
20260903044553 66 282 0.0 3.0 0.00 0.26 0.00 96 1019.2
20260903044020 66 131 1.0 2.0 0.00 0.26 0.00 96 1019.2
20260903043521 66 247 1.0 2.0 0.00 0.26 0.00 96 1019.4
20260903043042 66 238 0.0 3.0 0.00 0.26 0.00 96 1019.2
20260903042519 66 291 1.0 3.0 0.00 0.26 0.00 96 1019.2
20260903042018 66 0 0.0 2.0 0.00 0.26 0.00 96 1019.1
20260903041539 66 0 0.0 2.0 0.00 0.26 0.00 96 1019.0
20260903041024 66 0 0.0 1.0 0.00 0.26 0.00 96 1019.3
20260903040521 66 0 0.0 1.0 0.00 0.26 0.00 96 1019.4
20260903040050 66 0 0.0 1.0 0.00 0.26 0.00 96 1019.3
20260903035520 66 51 0.0 2.0 0.00 0.26 0.26 96 1019.4
20260903035020 66 0 0.0 2.0 0.00 0.26 0.26 96 1019.4
20260903034538 66 0 0.0 3.0 0.00 0.26 0.26 96 1019.5
20260903034018 66 247 0.0 5.0 0.00 0.26 0.26 96 1019.4
20260903033519 66 0 0.0 5.0 0.00 0.26 0.26 96 1019.3
20260903033042 66 193 1.0 5.0 0.00 0.26 0.26 95 1019.1
20260903032518 66 0 1.0 3.0 0.00 0.26 0.26 95 1019.0
20260903032021 66 67 0.0 3.0 0.00 0.26 0.26 95 1019.0
20260903031540 66 123 0.0 3.0 0.00 0.26 0.26 95 1018.9
20260903031021 66 0 1.0 3.0 0.00 0.26 0.26 95 1019.1
20260903030525 66 105 1.0 3.0 0.00 0.26 0.26 95 1019.2
20260903030041 66 9 0.0 3.0 0.00 0.26 0.26 95 1019.2
20260903025520 66 286 1.0 3.0 0.00 0.26 0.26 95 1019.4
20260903025017 66 0 1.0 3.0 0.00 0.26 0.26 95 1019.3
20260903024543 66 51 1.0 3.0 0.00 0.26 0.26 95 1019.4
20260903024021 66 303 1.0 3.0 0.00 0.26 0.26 95 1019.4
20260903023520 66 250 1.0 3.0 0.00 0.26 0.26 95 1019.4
20260903023045 66 0 1.0 3.0 0.00 0.26 0.26 95 1019.6
20260903022518 65 0 0.0 3.0 0.00 0.26 0.26 95 1019.4
20260903022020 66 0 0.0 3.0 0.00 0.26 0.26 96 1019.6
20260903021541 65 67 0.0 3.0 0.00 0.26 0.26 96 1019.7
20260903021022 65 61 1.0 3.0 0.00 0.26 0.26 96 1019.8
20260903020523 65 93 1.0 3.0 0.00 0.26 0.26 96 1019.7
20260903020041 65 76 1.0 3.0 0.00 0.26 0.26 96 1019.8
20260903015521 65 51 0.0 3.0 0.00 0.26 0.26 96 1019.6
20260903015022 65 316 0.0 3.0 0.00 0.26 0.26 96 1019.6
20260903014540 65 128 0.0 3.0 0.00 0.26 0.26 96 1019.7
20260903014022 65 255 0.0 2.0 0.00 0.26 0.26 96 1019.7
20260903013519 65 205 0.0 3.0 0.00 0.26 0.26 95 1019.8
20260903013038 65 51 0.0 3.0 0.00 0.26 0.26 96 1019.8
20260903012520 65 34 0.0 3.0 0.00 0.26 0.26 95 1020.1
20260903012019 65 44 1.0 4.0 0.00 0.26 0.26 95 1020.0
20260903011538 65 22 1.0 4.0 0.00 0.26 0.26 95 1020.0
20260903011018 65 149 0.0 3.0 0.00 0.26 0.26 95 1020.2
20260903010521 65 9 0.0 3.0 0.00 0.26 0.26 95 1020.2
20260903010040 65 0 0.0 2.0 0.00 0.26 0.26 95 1020.2
20260903005518 65 309 1.0 2.0 0.00 0.26 0.26 95 1020.1
20260903005022 65 325 0.0 2.0 0.00 0.26 0.26 95 1020.2
20260903004549 65 72 0.0 2.0 0.00 0.26 0.26 95 1020.3
20260903004023 65 0 0.0 2.0 0.00 0.26 0.26 95 1020.3
20260903003519 65 334 1.0 2.0 0.00 0.26 0.26 95 1020.6
20260903003048 65 341 0.0 2.0 0.00 0.26 0.26 95 1020.5
20260903002519 65 0 0.0 3.0 0.00 0.26 0.26 95 1020.2
20260903002019 65 309 1.0 5.0 0.00 0.26 0.26 95 1020.0
20260903001541 65 247 1.0 5.0 0.00 0.26 0.26 95 1020.0
20260903001021 65 0 1.0 3.0 0.00 0.26 0.26 95 1019.8
20260903000519 65 0 1.0 4.0 0.00 0.26 0.26 95 1019.6
20260903000049 65 227 1.0 4.0 0.00 0.26 0.26 95 1019.3
20260902235518 65 137 1.0 3.0 0.00 0.26 0.26 95 1019.4
20260902235019 65 309 0.0 2.0 0.00 0.26 0.26 95 1019.7
20260902234542 65 119 1.0 3.0 0.00 0.26 0.26 95 1019.5
20260902234020 65 309 1.0 6.0 0.00 0.26 0.26 95 1019.4
20260902233519 65 265 0.0 6.0 0.00 0.26 0.26 95 1019.6
20260902233043 65 22 0.0 6.0 0.00 0.26 0.26 95 1019.7
20260902232519 65 93 1.0 4.0 0.00 0.26 0.26 95 1019.6
20260902232020 65 0 1.0 4.0 0.00 0.26 0.26 95 1019.7
20260902231545 65 287 1.0 4.0 0.00 0.26 0.26 95 1019.9
20260902231022 65 41 1.0 4.0 0.00 0.26 0.26 95 1019.8
20260902230520 65 83 1.0 4.0 0.00 0.26 0.26 95 1020.0
20260902230041 65 153 1.0 6.0 0.00 0.26 0.26 95 1020.1
20260902225520 65 0 1.0 6.0 0.00 0.26 0.26 95 1020.2
20260902225025 65 44 2.0 5.0 0.00 0.26 0.26 95 1020.2
20260902224603 65 238 1.0 4.0 0.00 0.26 0.26 95 1020.4
20260902224017 65 134 0.0 4.0 0.00 0.26 0.26 95 1020.5
20260902223521 65 0 1.0 4.0 0.00 0.26 0.26 95 1020.6
20260902223040 65 0 1.0 4.0 0.00 0.26 0.26 95 1020.5
20260902222518 65 0 0.0 4.0 0.00 0.26 0.26 95 1020.5